Home   Weather   Gainesville   Past weeks

Flag for USA Past Weather in Gainesville, Florida, USA — Yesterday and Last 2 Weeks

Now
80 °F

Partly cloudy.


Feels Like: 82 °F
Forecast: 69 / 87 °F
Wind: 10 mph from Southeast

Location: Gainesville Regional Airport

Current Time: Apr 30, 2017 at 10:37:53 pm

Latest Report: Apr 30, 2017 at 10:07 pm


Visibility: 10 mi

Pressure: 30.07 "Hg

Humidity: 64%

Dew Point: 67 °F

Location of GainesvilleLocation

Past Weather in Gainesville — Graph

°F

Gainesville Temperature Yesterday

Maximum temperature yesterday: 93 °F (at 2:53 pm)
Minimum temperature yesterday: 73 °F (at 4:31 am)
Average temperature yesterday: 80 °F

High & Low Weather Summary for the Past Weeks

 TemperatureHumidityPressure
High95 °F (Apr 28, 4:53 pm)100% (Apr 17, 7:53 am)30.27 "Hg (Apr 17, 7:53 am)
Low52 °F (Apr 26, 4:53 am)30% (Apr 21, 5:53 pm)29.68 "Hg (Apr 24, 4:53 pm)
Average72 °F67%30.01 "Hg
* Reported Apr 15 8:53 pm — Apr 30 8:53 pm, Gainesville, Weather by CustomWeather, © 2017

Note: Actual official high and low records may vary slightly from our data, if they occured in-between our weather recording intervals... More about our weather records

Advertising

Gainesville Weather History for the Previous 24 Hours

Scroll right to see more
 ConditionsComfort  
Time TempWeatherWind HumidityBarometerVisibility
8:53 pm
Sun, Apr 30
81 °FClear.15 mph65%30.04 "Hg10 mi
7:53 pm84 °FMostly cloudy.16 mph55%30.03 "Hg10 mi
6:53 pm88 °FPassing clouds.5 mph42%30.01 "Hg10 mi
5:53 pm90 °FScattered clouds.13 mph38%30.02 "Hg10 mi
4:53 pm92 °FPartly sunny.12 mph37%30.03 "Hg10 mi
3:53 pm91 °FSunny.15 mph36%30.04 "Hg10 mi
2:53 pm90 °FPassing clouds.13 mph39%30.06 "Hg10 mi
1:53 pm90 °FScattered clouds.16 mph41%30.07 "Hg10 mi
12:53 pm87 °FScattered clouds.13 mph48%30.10 "Hg10 mi
11:53 am83 °FScattered clouds.14 mph53%30.12 "Hg10 mi
10:53 am82 °FPassing clouds.13 mph63%30.11 "Hg10 mi
9:53 am79 °FScattered clouds.16 mph72%30.10 "Hg10 mi
9:12 am77 °FScattered clouds.13 mph77%30.11 "Hg10 mi
9:00 am77 °FPartly sunny.15 mph79%30.11 "Hg10 mi
8:01 am72 °FPassing clouds.12 mph93%30.11 "Hg10 mi
7:37 am71 °FPassing clouds.13 mph96%30.11 "Hg10 mi
7:12 am70 °FPartly sunny.7 mph97%30.11 "Hg9 mi
6:53 am69 °FPassing clouds.7 mph96%30.10 "Hg10 mi
6:15 am70 °FPassing clouds.3 mph93%30.11 "Hg10 mi
6:01 am69 °FPassing clouds.No wind96%30.11 "Hg10 mi
4:53 am71 °FOvercast.3 mph90%30.11 "Hg10 mi
4:38 am71 °FOvercast.3 mph90%30.11 "Hg10 mi
3:53 am71 °FPartly cloudy.7 mph90%30.10 "Hg10 mi
3:39 am72 °FPassing clouds.7 mph87%30.11 "Hg10 mi
2:53 am73 °FPassing clouds.7 mph88%30.10 "Hg10 mi
1:53 am73 °FPassing clouds.9 mph84%30.11 "Hg10 mi
12:53 am74 °FClear.13 mph82%30.11 "Hg10 mi
11:53 pm
Sat, Apr 29
74 °FClear.10 mph82%30.11 "Hg10 mi
10:53 pm75 °FClear.13 mph79%30.11 "Hg10 mi
Weather by CustomWeather, © 2017

See weather overviewHow to use our weather pages